Location: Cosy Dell
(34.2789°N, 117.4537°W)
Time: 12:16:39
(UTC+00:00)

Genesis I - Pass Details

Date: 14 July 2020
Orbit: 510 x 513 km, 64.5° (Epoch: 08 August)

Event Time Altitude Azimuth Distance (km) Brightness Sun altitude
Rises 03:46:52 0° 208° (SSW) 2,605 6.7 -8.7°
Reaches altitude 10° 03:49:01 10° 209° (SSW) 1,723 5.8 -9.0°
Maximum altitude 03:52:52 88° 295° (WNW) 515 3.2 -9.7°
Drops below altitude 10° 03:56:45 10° 29° (NNE) 1,732 5.9 -10.3°
Sets 03:58:56 0° 29° (NNE) 2,621 6.9 -10.7°
